SCP
-0 -0 -0 -0 -0 0 0 0 0 0 0 0 0 0 -0 0 0 0 0 0 0 0 0 0 0 0 0 0 0 0 0 0 -0 0 0 0 0 0 0 0 0 0 0 0 0 0 0
-0 -0 -0 -0 -0 -0 0 0 0 0 0 0 0 0 -0 0 0 0 0 0 0 0 0 0 0 0 0 0 0 0 0 0 0 0 0 0 0 0 0 0 0 0 0 0 0 0 0
-0 -0 -0 -0 -0 -0 0 0 0 0 0 0 0 0 -0 0 0 0 0 0 0 0 0 0 0 0 0 0 0 0 0 0 0 0 0 0 0 0 0 0 0 0 0 0 0 0 0
-0 -0 -0 -0 -0 -0 0 0 0 0 0 0 0 0 0 0 0 0 0 0 0 0 0 0 0 0 0 0 0 0 0 0 0 0 0 0 0 0 0 0 0 0 0 0 0 0 0
0 -0 -0 -0 -0 -0 0 0 0 0 0 0 0 0 0 0 0 0 0 0 0 0 0 0 0 0 0 0 0 0 0 0 0 0 0 0 0 0 0 0 0 0 0 0 0 0 0
0 -0 -0 -0 -0 -0 0 0 0 0 0 0 0 0 0 0 0 0 0 0 0 0 0 0 0 0 0 0 0 0 0 0 0 0 0 0 0 0 0 0 0 0 0 0 0 0 0
-0 -0 -0 -0 -0 -0 0 0 0 0 0 0 0 0 0 0 0 0 0 0 0 0 0 0 0 0 0 0 0 0 0 0 0 0 0 0 0 0 0 0 0 0 0 0 0 0 0
0 -0 -0 -0 -0 -0 0 0 0 0 0 0 0 0 0 0 0 0 0 0 0 0 0 0 0 0 0 0 0 0 0 0 0 0 0 0 -0 0 0 0 -0 0 0 0 0 0 0
-0 -0 -0 -0 -0 0 0 0 0 0 0 0 0 0 0 0 0 0 0 0 0 0 0 0 0 0 0 0 0 0 0 0 0 0 0 0 0 -0 0 -0 -0 0 0 0 0 0 0
-0 -0 -0 -0 -0 0 0 0 0 0 0 0 0 0 0 0 0 0 0 0 0 0 0 0 0 0 0 0 0 0 0 0 0 0 0 0 0 0 0 -0 -0 0 0 0 0 0 0
-0 -0 -0 -0 -0 0 0 0 0 0 0 0 0 0 0 0 0 0 0 0 0 0 0 0 0 0 0 0 0 0 0 0 0 0 0 0 0 -0 -0 -0 0 0 0 0 0 0 0
-0 -0 -0 -0 -0 0 0 0 0 0 0 0 0 0 0 0 0 0 0 0 0 0 0 0 0 0 0 0 0 0 0 0 0 -0 0 0 -0 -0 -0 0 0 -0 0 -0 0 0 0
0 -0 -0 -0 -0 0 0 0 0 0 0 0 0 0 0 0 0 0 0 0 0 0 0 0 0 0 -0 0 0 0 0 0 0 0 0 0 -0 0 0 0 0 0 0 0 0 0 0
0 -0 -0 -0 -0 0 0 0 0 0 0 0 0 0 0 0 0 0 0 -0 0 0 0 0 0 0 0 -0 -0 0 0 -0 0 -0 -0 0 0 -0 -0 -0 0 0 0 0 0 0 0
0 0 -0 -0 -0 -0 0 0 -0 0 0 -0 0 0 0 0 0 0 0 0 0 0 0 0 0 0 0 -0 -0 -0 -0 -0 0 0 0 0 0 0 0 0 0 -0 -0 0 0 0 0
0 0 0 -0 -0 0 0 -0 -0 0 0 -0 0 0 0 0 0 0 0 0 0 0 0 0 0 0 0 0 -0 0 -0 -0 -0 0 -0 0 0 -0 -0 0 0 0 0 0 0 0 0
0 0 0 0 -0 0 0 0 -0 -0 -0 -0 0 -0 0 0 0 0 0 0 0 0 0 0 0 0 0 0 -0 -0 -0 -0 -0 -0 -0 0 -0 -0 0 0 0 0 0 0 0 0 0
0 0 0 0 0 0 0 0 -0 -0 -0 0 -0 -0 0 0 0 0 0 0 0 0 0 0 0 0 0 -0 -0 -0 -0 -0 -0 -0 -0 0 0 -0 -0 -0 0 0 0 0 0 0 0
0 0 0 0 0 0 0 0 -0 -0 0 0 -0 -0 0 0 0 0 0 0 0 0 0 0 0 0 0 0 -0 -0 0 -0 -0 -0 -0 -0 -0 -0 0 -0 0 0 0 0 0 0 0
0 0 0 0 0 0 0 0 0 -0 0 0 -0 -0 0 0 0 0 0 0 0 0 0 0 0 0 0 0 -0 -0 -0 -0 -0 -0 -0 0 -0 -0 -0 0 -0 0 0 0 0 0 0
0 0 0 0 0 0 0 0 0 -0 -0 -0 -0 0 0 0 0 0 0 0 0 0 0 0 0 0 0 0 -0 -0 -0 -0 -0 -0 -0 -0 0 -0 0 0 0 0 0 0 0 0 0
0 0 0 0 0 0 0 0 0 0 -0 0 -0 0 0 0 0 0 0 0 0 0 0 0 0 0 0 0 -0 -0 -0 -0 -0 -0 -0 -0 0 -0 0 0 0 0 0 0 0 0 0
0 0 0 0 0 0 0 0 0 0 -0 0 0 0 0 0 0 0 0 0 0 0 0 0 0 0 0 0 -0 -0 -0 -0 -0 -0 -0 -0 0 0 0 0 0 0 0 0 0 0 0
0 0 0 0 0 0 0 0 0 0 0 0 0 0 0 0 0 0 0 0 0 0 0 0 0 0 0 -0 -0 -0 -0 -0 -0 -0 -0 -0 -0 -0 0 0 -0 0 0 0 0 0 0
0 0 0 0 0 0 0 0 0 0 0 0 0 0 0 0 0 0 0 0 0 0 0 0 0 0 0 -0 0 0 0 0 -0 0 -0 -0 -0 -0 -0 0 0 0 0 0 0 0 0
0 0 0 0 0 0 0 0 0 0 0 0 0 0 0 0 0 0 0 0 0 0 0 0 0 0 0 0 -0 -0 -0 0 0 0 0 -0 -0 -0 -0 0 0 0 0 0 0 0 0
0 0 0 0 0 0 0 0 0 0 0 0 0 0 0 0 0 0 0 0 0 0 0 0 0 0 0 0 -0 -0 -0 -0 0 -0 0 -0 -0 -0 0 0 0 0 0 0 0 0 0
0 0 0 0 0 0 0 0 0 0 0 0 0 0 0 0 0 0 0 0 0 0 0 0 0 0 0 -0 -0 0 -0 0 0 0 -0 0 0 0 -0 0 0 -0 0 0 0 0 0
0 0 0 0 0 0 0 0 0 0 0 0 0 0 0 0 0 0 -0 -0 0 0 0 0 0 0 0 0 0 0 0 0 0 0 0 0 0 0 0 0 0 0 0 0 0 0 0
Wind_Speed_500mb
62 64 64 64 63 60 61 60 58 60 63 66 67 57 32 30 28 24 25 29 35 39 40 27 31 25 12 9 3 8 13 15 12 12 16 14 21 29 35 26 41 49 47 40 53 45 44
64 66 66 66 66 65 64 61 60 60 61 65 69 57 32 31 29 23 23 29 35 40 38 25 28 19 6 12 7 8 13 18 14 17 21 20 15 26 25 41 34 26 48 53 40 57 53
67 67 66 66 66 67 66 65 62 62 62 64 68 56 31 32 29 22 23 29 37 40 35 21 27 13 13 14 8 11 21 17 17 19 24 26 22 23 15 25 48 36 38 32 47 46 52
67 68 68 67 67 67 67 66 65 66 64 63 66 55 32 31 29 25 26 32 38 37 30 16 26 10 11 15 15 21 19 18 15 15 21 21 25 33 32 32 21 29 39 39 42 50 49
67 68 68 69 69 69 69 70 68 66 65 62 64 56 35 31 27 26 28 34 41 38 19 23 9 7 4 9 13 16 11 11 10 8 13 16 21 30 29 32 30 39 37 50 45 40 45
66 69 70 70 71 71 71 71 71 67 66 63 62 58 35 29 29 28 28 34 31 25 12 13 7 8 10 14 18 17 9 9 10 6 6 19 22 24 28 27 33 32 45 42 46 43 52
67 70 71 72 74 75 74 74 73 72 68 64 62 59 34 28 29 29 29 28 19 8 12 20 23 23 26 17 23 8 9 8 13 13 18 19 19 26 38 38 40 45 40 43 37 45 39
67 70 74 77 79 80 80 76 75 73 69 66 62 61 34 27 29 25 26 14 17 22 22 18 22 27 30 17 15 9 10 13 14 17 7 12 26 31 13 15 36 54 38 42 37 36 45
68 72 76 80 83 83 82 80 77 75 73 69 67 62 31 24 27 24 26 15 17 13 14 6 12 18 11 11 19 23 14 14 21 25 15 25 12 21 21 28 38 48 33 32 39 45 47
67 71 76 78 83 83 83 82 80 78 75 73 74 58 19 21 15 31 14 26 12 6 9 12 6 3 7 20 13 7 17 18 13 20 18 18 10 21 28 32 41 38 42 20 43 33 29
65 70 75 77 82 82 83 83 82 80 80 79 76 47 11 18 25 24 30 19 8 3 8 20 15 12 24 17 31 12 12 19 30 27 14 6 10 22 28 34 34 24 14 32 33 32 36
64 69 74 75 81 82 85 86 84 82 81 81 69 33 16 30 33 35 23 12 5 10 7 14 25 38 28 14 18 9 14 22 26 28 29 29 17 20 30 23 26 19 25 50 26 24 25
63 68 72 74 79 82 85 88 88 85 83 82 56 19 26 42 37 30 20 12 9 7 27 19 47 45 32 12 19 12 23 22 17 13 12 20 32 26 26 24 26 11 13 16 20 15 22
62 66 71 73 77 81 85 88 88 85 83 82 49 9 27 52 37 26 15 18 10 21 22 36 33 38 16 24 12 22 25 21 12 18 23 10 8 27 23 21 18 34 32 9 28 22 19
60 64 69 72 75 81 84 87 88 84 81 79 34 9 31 50 32 30 25 10 13 24 31 32 39 24 26 27 20 15 18 29 17 21 8 10 2 16 23 22 22 29 37 19 13 6 22
58 62 68 71 72 78 81 84 87 85 79 74 24 6 38 44 32 21 12 6 14 19 31 27 31 20 40 36 28 30 14 22 12 26 39 11 6 16 15 21 23 30 15 9 11 14 20
56 60 65 69 70 75 76 81 85 86 79 62 23 5 34 53 22 19 9 12 17 27 35 20 32 36 36 29 40 40 13 5 26 29 44 17 8 17 17 18 26 18 19 9 11 12 2
53 57 62 67 68 72 73 77 79 82 81 62 15 6 35 41 17 11 15 16 25 19 28 16 20 25 24 38 32 24 13 2 27 34 22 11 8 10 22 17 19 19 17 16 4 5 12
52 55 58 63 65 69 71 73 74 74 75 56 17 8 22 29 11 15 19 11 13 23 26 15 16 20 23 33 23 22 24 16 38 26 24 15 7 8 13 13 16 20 14 13 7 13 13
49 52 55 59 62 66 68 69 71 68 64 39 13 9 9 21 22 17 18 16 23 24 23 30 23 20 32 36 19 21 20 9 39 35 37 9 11 13 10 12 25 21 14 16 16 5 2
47 49 52 55 59 63 66 66 66 64 58 29 21 9 7 13 16 23 17 14 24 24 12 26 10 27 35 19 39 8 35 36 24 26 29 16 11 22 14 1 8 16 21 18 18 7 9
46 46 48 51 55 60 63 63 62 60 56 28 15 14 11 17 17 19 2 19 25 30 15 18 22 35 35 31 28 42 39 29 14 16 21 22 6 11 7 4 15 16 16 17 16 5 9
45 44 46 49 52 55 58 59 59 55 52 17 18 13 7 4 16 13 14 20 29 34 15 22 29 35 33 26 48 63 61 51 36 35 22 15 13 10 4 1 17 18 20 16 10 12 6
41 41 43 45 47 51 54 55 55 51 47 30 21 10 10 11 12 12 27 29 30 31 29 40 30 30 30 63 64 42 32 26 29 31 28 18 22 11 9 8 20 18 17 16 14 5 5
45 43 42 40 43 47 50 50 50 45 43 30 25 10 10 13 21 14 27 30 32 29 19 21 22 36 39 39 13 10 6 6 3 6 14 21 11 10 8 10 11 15 25 12 12 13 24
45 45 38 37 43 44 45 44 44 42 37 26 25 20 6 14 5 15 23 20 19 21 14 7 27 24 34 7 9 13 9 10 7 6 7 7 15 9 11 7 3 16 28 19 9 10 28
47 45 44 40 43 44 44 42 37 39 35 26 13 26 7 10 11 9 9 13 13 17 13 14 29 19 31 13 11 9 7 11 10 13 3 5 6 9 7 9 10 26 27 10 15 9 37
49 48 47 46 47 46 44 40 35 33 30 24 15 20 9 13 27 12 13 19 19 12 12 30 12 13 13 15 10 7 7 7 6 5 14 8 9 5 8 5 6 42 17 14 22 36 29
52 51 50 50 50 48 45 41 36 29 28 22 8 21 21 17 19 29 29 28 31 27 23 12 9 8 9 7 7 8 5 5 13 6 6 4 4 8 9 6 14 22 25 30 39 36 23
Wind_Direction_500mb
25 22 20 20 18 17 14 12 10 8 6 4 3 359 356 354 349 342 341 342 340 341 341 328 334 341 2 261 268 305 348 327 308 254 248 255 243 230 234 239 236 234 240 236 239 249 239
24 22 20 18 17 15 12 10 8 6 4 2 1 359 356 355 350 342 338 340 338 336 335 324 333 331 318 251 243 327 325 304 288 266 249 236 246 240 268 244 234 247 239 248 240 236 245
24 21 19 16 15 14 10 9 7 3 2 0 359 358 356 354 349 342 337 337 336 332 330 322 330 323 276 255 240 309 313 296 277 269 252 241 246 226 232 251 243 252 256 241 234 239 236
21 19 17 16 15 13 9 7 6 3 1 359 358 357 352 352 347 339 338 334 330 328 328 320 328 318 258 225 278 303 285 291 273 266 247 244 239 245 247 254 261 242 242 242 228 220 233
21 20 19 17 14 11 8 5 4 2 359 357 356 355 347 346 342 336 334 331 328 328 326 317 337 291 235 282 299 308 258 277 269 265 244 231 223 231 241 241 247 232 233 225 236 213 214
20 19 18 16 13 10 7 4 1 1 358 355 353 352 343 337 337 335 331 331 331 332 343 340 278 266 230 313 312 296 260 241 248 240 212 217 212 227 232 222 233 225 226 240 223 220 211
19 17 16 15 12 9 6 4 1 0 359 355 351 348 337 332 336 334 336 343 330 239 275 269 293 276 303 310 303 272 239 238 228 238 269 198 221 235 240 240 240 263 237 230 233 223 216
17 16 13 12 10 8 7 5 3 359 358 354 350 344 331 328 332 330 334 320 331 308 302 289 264 267 277 279 289 249 222 241 216 268 224 200 234 263 249 262 276 256 237 238 221 223 227
15 13 11 8 8 7 6 5 3 360 357 355 347 343 328 328 331 335 328 297 321 318 274 281 279 282 306 252 290 291 221 255 262 278 251 252 267 211 237 229 251 238 225 237 227 214 213
12 11 8 7 6 6 6 5 4 1 358 356 346 345 335 343 5 339 330 318 324 299 270 41 5 347 297 311 276 249 234 261 243 277 296 268 203 239 243 226 234 212 226 237 261 202 193
9 8 6 6 5 5 6 6 5 2 357 356 350 351 356 2 341 341 318 323 312 297 286 1 353 310 301 301 292 190 224 234 263 270 250 265 239 239 231 237 230 226 316 246 246 187 208
5 5 5 5 4 4 4 5 5 2 358 357 356 4 14 1 352 335 334 318 325 241 351 342 332 324 312 332 282 306 252 234 269 277 258 255 209 235 252 269 225 138 244 247 212 187 214
2 2 2 3 4 4 3 3 4 3 359 358 360 22 22 8 345 338 333 319 267 12 343 330 328 330 318 321 343 255 285 250 254 278 234 207 225 228 246 231 201 207 227 180 183 191 202
359 0 1 2 2 3 1 360 3 4 359 358 357 344 359 359 355 355 324 272 330 7 339 336 326 321 351 19 324 320 314 282 242 282 299 288 198 203 183 229 173 208 226 298 173 187 127
357 357 358 359 1 1 360 358 0 4 1 357 3 38 6 359 357 346 308 357 0 347 336 325 318 333 345 9 310 329 317 285 0 330 289 316 98 165 168 208 228 209 220 257 314 336 142
354 354 355 357 359 360 358 358 359 3 4 358 17 57 2 358 357 352 314 355 339 346 334 320 320 335 328 338 326 331 338 22 340 325 302 286 264 180 168 225 237 268 219 201 229 180 147
351 352 353 355 357 359 358 359 358 1 6 4 21 332 353 349 22 21 39 344 323 334 344 325 317 319 333 334 329 330 50 273 349 307 315 276 281 148 167 212 201 207 220 266 319 319 146
346 348 350 352 355 357 358 358 360 0 3 11 17 345 340 6 25 8 16 337 323 327 334 311 309 320 350 326 326 325 354 19 334 323 303 317 302 207 196 169 263 226 262 231 325 144 7
342 344 346 349 351 354 356 357 1 3 3 4 352 335 348 22 30 15 355 334 324 322 332 322 309 334 332 323 327 321 348 16 330 341 350 335 276 206 171 182 211 254 221 260 12 301 24
336 338 342 344 346 349 353 357 360 4 6 9 1 351 11 43 43 347 355 5 341 329 314 335 294 308 338 328 312 294 341 6 320 307 327 271 285 322 346 57 163 212 234 228 231 265 106
330 333 337 340 342 345 350 356 360 3 10 31 16 39 0 330 0 342 336 325 342 352 328 322 308 345 337 322 318 51 326 329 6 288 335 2 330 328 324 71 229 204 190 193 221 304 273
323 327 332 336 340 343 347 352 360 3 7 29 15 353 323 292 316 323 22 351 329 341 320 316 315 326 320 306 297 301 314 320 328 296 347 342 293 290 272 262 219 229 204 197 222 188 254
316 320 326 332 338 340 343 349 356 4 13 31 7 338 332 300 328 313 7 330 320 324 311 314 314 310 313 324 312 294 284 278 259 282 301 301 328 5 270 181 176 214 215 196 199 234 297
309 313 320 327 334 336 339 343 350 1 8 20 11 359 310 328 322 329 317 317 319 320 302 306 312 309 305 313 308 281 249 259 255 258 247 279 319 315 298 292 184 64 15 270 232 250 131
305 303 310 321 329 332 333 337 343 351 359 12 10 13 323 295 321 300 325 320 319 319 321 318 336 319 319 316 319 341 69 165 146 250 236 230 285 303 310 305 123 84 26 357 343 94 13
299 307 308 318 324 326 327 329 333 337 351 0 360 8 319 294 77 313 314 313 319 337 333 5 340 337 341 312 334 4 11 330 337 347 82 173 246 307 327 295 24 17 348 341 215 180 21
292 296 303 307 313 318 320 320 323 325 335 351 322 357 359 281 286 305 314 320 313 321 300 317 347 345 2 352 29 3 358 358 342 320 302 177 205 264 293 261 119 353 346 313 225 29 339
282 288 293 298 303 308 311 312 312 312 314 332 302 329 330 286 289 258 267 274 293 276 311 339 285 29 347 13 356 358 341 359 285 280 329 11 324 266 283 251 82 354 13 17 329 320 318
275 279 284 289 295 301 305 303 303 299 296 305 301 302 313 279 264 281 269 253 247 255 292 309 335 343 9 339 2 304 354 310 284 346 35 24 108 301 326 29 346 61 20 346 337 326 322
Wind_Speed_850mb
62 64 64 64 63 60 61 60 58 60 63 66 67 57 32 30 28 24 25 29 35 39 40 27 31 25 12 9 3 8 13 15 12 12 16 14 21 29 35 26 41 49 47 40 53 45 44
64 66 66 66 66 65 64 61 60 60 61 65 69 57 32 31 29 23 23 29 35 40 38 25 28 19 6 12 7 8 13 18 14 17 21 20 15 26 25 41 34 26 48 53 40 57 53
67 67 66 66 66 67 66 65 62 62 62 64 68 56 31 32 29 22 23 29 37 40 35 21 27 13 13 14 8 11 21 17 17 19 24 26 22 23 15 25 48 36 38 32 47 46 52
67 68 68 67 67 67 67 66 65 66 64 63 66 55 32 31 29 25 26 32 38 37 30 16 26 10 11 15 15 21 19 18 15 15 21 21 25 33 32 32 21 29 39 39 42 50 49
67 68 68 69 69 69 69 70 68 66 65 62 64 56 35 31 27 26 28 34 41 38 19 23 9 7 4 9 13 16 11 11 10 8 13 16 21 30 29 32 30 39 37 50 45 40 45
66 69 70 70 71 71 71 71 71 67 66 63 62 58 35 29 29 28 28 34 31 25 12 13 7 8 10 14 18 17 9 9 10 6 6 19 22 24 28 27 33 32 45 42 46 43 52
67 70 71 72 74 75 74 74 73 72 68 64 62 59 34 28 29 29 29 28 19 8 12 20 23 23 26 17 23 8 9 8 13 13 18 19 19 26 38 38 40 45 40 43 37 45 39
67 70 74 77 79 80 80 76 75 73 69 66 62 61 34 27 29 25 26 14 17 22 22 18 22 27 30 17 15 9 10 13 14 17 7 12 26 31 13 15 36 54 38 42 37 36 45
68 72 76 80 83 83 82 80 77 75 73 69 67 62 31 24 27 24 26 15 17 13 14 6 12 18 11 11 19 23 14 14 21 25 15 25 12 21 21 28 38 48 33 32 39 45 47
67 71 76 78 83 83 83 82 80 78 75 73 74 58 19 21 15 31 14 26 12 6 9 12 6 3 7 20 13 7 17 18 13 20 18 18 10 21 28 32 41 38 42 20 43 33 29
65 70 75 77 82 82 83 83 82 80 80 79 76 47 11 18 25 24 30 19 8 3 8 20 15 12 24 17 31 12 12 19 30 27 14 6 10 22 28 34 34 24 14 32 33 32 36
64 69 74 75 81 82 85 86 84 82 81 81 69 33 16 30 33 35 23 12 5 10 7 14 25 38 28 14 18 9 14 22 26 28 29 29 17 20 30 23 26 19 25 50 26 24 25
63 68 72 74 79 82 85 88 88 85 83 82 56 19 26 42 37 30 20 12 9 7 27 19 47 45 32 12 19 12 23 22 17 13 12 20 32 26 26 24 26 11 13 16 20 15 22
62 66 71 73 77 81 85 88 88 85 83 82 49 9 27 52 37 26 15 18 10 21 22 36 33 38 16 24 12 22 25 21 12 18 23 10 8 27 23 21 18 34 32 9 28 22 19
60 64 69 72 75 81 84 87 88 84 81 79 34 9 31 50 32 30 25 10 13 24 31 32 39 24 26 27 20 15 18 29 17 21 8 10 2 16 23 22 22 29 37 19 13 6 22
58 62 68 71 72 78 81 84 87 85 79 74 24 6 38 44 32 21 12 6 14 19 31 27 31 20 40 36 28 30 14 22 12 26 39 11 6 16 15 21 23 30 15 9 11 14 20
56 60 65 69 70 75 76 81 85 86 79 62 23 5 34 53 22 19 9 12 17 27 35 20 32 36 36 29 40 40 13 5 26 29 44 17 8 17 17 18 26 18 19 9 11 12 2
53 57 62 67 68 72 73 77 79 82 81 62 15 6 35 41 17 11 15 16 25 19 28 16 20 25 24 38 32 24 13 2 27 34 22 11 8 10 22 17 19 19 17 16 4 5 12
52 55 58 63 65 69 71 73 74 74 75 56 17 8 22 29 11 15 19 11 13 23 26 15 16 20 23 33 23 22 24 16 38 26 24 15 7 8 13 13 16 20 14 13 7 13 13
49 52 55 59 62 66 68 69 71 68 64 39 13 9 9 21 22 17 18 16 23 24 23 30 23 20 32 36 19 21 20 9 39 35 37 9 11 13 10 12 25 21 14 16 16 5 2
47 49 52 55 59 63 66 66 66 64 58 29 21 9 7 13 16 23 17 14 24 24 12 26 10 27 35 19 39 8 35 36 24 26 29 16 11 22 14 1 8 16 21 18 18 7 9
46 46 48 51 55 60 63 63 62 60 56 28 15 14 11 17 17 19 2 19 25 30 15 18 22 35 35 31 28 42 39 29 14 16 21 22 6 11 7 4 15 16 16 17 16 5 9
45 44 46 49 52 55 58 59 59 55 52 17 18 13 7 4 16 13 14 20 29 34 15 22 29 35 33 26 48 63 61 51 36 35 22 15 13 10 4 1 17 18 20 16 10 12 6
41 41 43 45 47 51 54 55 55 51 47 30 21 10 10 11 12 12 27 29 30 31 29 40 30 30 30 63 64 42 32 26 29 31 28 18 22 11 9 8 20 18 17 16 14 5 5
45 43 42 40 43 47 50 50 50 45 43 30 25 10 10 13 21 14 27 30 32 29 19 21 22 36 39 39 13 10 6 6 3 6 14 21 11 10 8 10 11 15 25 12 12 13 24
45 45 38 37 43 44 45 44 44 42 37 26 25 20 6 14 5 15 23 20 19 21 14 7 27 24 34 7 9 13 9 10 7 6 7 7 15 9 11 7 3 16 28 19 9 10 28
47 45 44 40 43 44 44 42 37 39 35 26 13 26 7 10 11 9 9 13 13 17 13 14 29 19 31 13 11 9 7 11 10 13 3 5 6 9 7 9 10 26 27 10 15 9 37
49 48 47 46 47 46 44 40 35 33 30 24 15 20 9 13 27 12 13 19 19 12 12 30 12 13 13 15 10 7 7 7 6 5 14 8 9 5 8 5 6 42 17 14 22 36 29
52 51 50 50 50 48 45 41 36 29 28 22 8 21 21 17 19 29 29 28 31 27 23 12 9 8 9 7 7 8 5 5 13 6 6 4 4 8 9 6 14 22 25 30 39 36 23
Wind_Direction_850mb
25 22 20 20 18 17 14 12 10 8 6 4 3 359 356 354 349 342 341 342 340 341 341 328 334 341 2 261 268 305 348 327 308 254 248 255 243 230 234 239 236 234 240 236 239 249 239
24 22 20 18 17 15 12 10 8 6 4 2 1 359 356 355 350 342 338 340 338 336 335 324 333 331 318 251 243 327 325 304 288 266 249 236 246 240 268 244 234 247 239 248 240 236 245
24 21 19 16 15 14 10 9 7 3 2 0 359 358 356 354 349 342 337 337 336 332 330 322 330 323 276 255 240 309 313 296 277 269 252 241 246 226 232 251 243 252 256 241 234 239 236
21 19 17 16 15 13 9 7 6 3 1 359 358 357 352 352 347 339 338 334 330 328 328 320 328 318 258 225 278 303 285 291 273 266 247 244 239 245 247 254 261 242 242 242 228 220 233
21 20 19 17 14 11 8 5 4 2 359 357 356 355 347 346 342 336 334 331 328 328 326 317 337 291 235 282 299 308 258 277 269 265 244 231 223 231 241 241 247 232 233 225 236 213 214
20 19 18 16 13 10 7 4 1 1 358 355 353 352 343 337 337 335 331 331 331 332 343 340 278 266 230 313 312 296 260 241 248 240 212 217 212 227 232 222 233 225 226 240 223 220 211
19 17 16 15 12 9 6 4 1 0 359 355 351 348 337 332 336 334 336 343 330 239 275 269 293 276 303 310 303 272 239 238 228 238 269 198 221 235 240 240 240 263 237 230 233 223 216
17 16 13 12 10 8 7 5 3 359 358 354 350 344 331 328 332 330 334 320 331 308 302 289 264 267 277 279 289 249 222 241 216 268 224 200 234 263 249 262 276 256 237 238 221 223 227
15 13 11 8 8 7 6 5 3 360 357 355 347 343 328 328 331 335 328 297 321 318 274 281 279 282 306 252 290 291 221 255 262 278 251 252 267 211 237 229 251 238 225 237 227 214 213
12 11 8 7 6 6 6 5 4 1 358 356 346 345 335 343 5 339 330 318 324 299 270 41 5 347 297 311 276 249 234 261 243 277 296 268 203 239 243 226 234 212 226 237 261 202 193
9 8 6 6 5 5 6 6 5 2 357 356 350 351 356 2 341 341 318 323 312 297 286 1 353 310 301 301 292 190 224 234 263 270 250 265 239 239 231 237 230 226 316 246 246 187 208
5 5 5 5 4 4 4 5 5 2 358 357 356 4 14 1 352 335 334 318 325 241 351 342 332 324 312 332 282 306 252 234 269 277 258 255 209 235 252 269 225 138 244 247 212 187 214
2 2 2 3 4 4 3 3 4 3 359 358 360 22 22 8 345 338 333 319 267 12 343 330 328 330 318 321 343 255 285 250 254 278 234 207 225 228 246 231 201 207 227 180 183 191 202
359 0 1 2 2 3 1 360 3 4 359 358 357 344 359 359 355 355 324 272 330 7 339 336 326 321 351 19 324 320 314 282 242 282 299 288 198 203 183 229 173 208 226 298 173 187 127
357 357 358 359 1 1 360 358 0 4 1 357 3 38 6 359 357 346 308 357 0 347 336 325 318 333 345 9 310 329 317 285 0 330 289 316 98 165 168 208 228 209 220 257 314 336 142
354 354 355 357 359 360 358 358 359 3 4 358 17 57 2 358 357 352 314 355 339 346 334 320 320 335 328 338 326 331 338 22 340 325 302 286 264 180 168 225 237 268 219 201 229 180 147
351 352 353 355 357 359 358 359 358 1 6 4 21 332 353 349 22 21 39 344 323 334 344 325 317 319 333 334 329 330 50 273 349 307 315 276 281 148 167 212 201 207 220 266 319 319 146
346 348 350 352 355 357 358 358 360 0 3 11 17 345 340 6 25 8 16 337 323 327 334 311 309 320 350 326 326 325 354 19 334 323 303 317 302 207 196 169 263 226 262 231 325 144 7
342 344 346 349 351 354 356 357 1 3 3 4 352 335 348 22 30 15 355 334 324 322 332 322 309 334 332 323 327 321 348 16 330 341 350 335 276 206 171 182 211 254 221 260 12 301 24
336 338 342 344 346 349 353 357 360 4 6 9 1 351 11 43 43 347 355 5 341 329 314 335 294 308 338 328 312 294 341 6 320 307 327 271 285 322 346 57 163 212 234 228 231 265 106
330 333 337 340 342 345 350 356 360 3 10 31 16 39 0 330 0 342 336 325 342 352 328 322 308 345 337 322 318 51 326 329 6 288 335 2 330 328 324 71 229 204 190 193 221 304 273
323 327 332 336 340 343 347 352 360 3 7 29 15 353 323 292 316 323 22 351 329 341 320 316 315 326 320 306 297 301 314 320 328 296 347 342 293 290 272 262 219 229 204 197 222 188 254
316 320 326 332 338 340 343 349 356 4 13 31 7 338 332 300 328 313 7 330 320 324 311 314 314 310 313 324 312 294 284 278 259 282 301 301 328 5 270 181 176 214 215 196 199 234 297
309 313 320 327 334 336 339 343 350 1 8 20 11 359 310 328 322 329 317 317 319 320 302 306 312 309 305 313 308 281 249 259 255 258 247 279 319 315 298 292 184 64 15 270 232 250 131
305 303 310 321 329 332 333 337 343 351 359 12 10 13 323 295 321 300 325 320 319 319 321 318 336 319 319 316 319 341 69 165 146 250 236 230 285 303 310 305 123 84 26 357 343 94 13
299 307 308 318 324 326 327 329 333 337 351 0 360 8 319 294 77 313 314 313 319 337 333 5 340 337 341 312 334 4 11 330 337 347 82 173 246 307 327 295 24 17 348 341 215 180 21
292 296 303 307 313 318 320 320 323 325 335 351 322 357 359 281 286 305 314 320 313 321 300 317 347 345 2 352 29 3 358 358 342 320 302 177 205 264 293 261 119 353 346 313 225 29 339
282 288 293 298 303 308 311 312 312 312 314 332 302 329 330 286 289 258 267 274 293 276 311 339 285 29 347 13 356 358 341 359 285 280 329 11 324 266 283 251 82 354 13 17 329 320 318
275 279 284 289 295 301 305 303 303 299 296 305 301 302 313 279 264 281 269 253 247 255 292 309 335 343 9 339 2 304 354 310 284 346 35 24 108 301 326 29 346 61 20 346 337 326 322